User: anonymous   Login
Location: Beverley
(50.2667°N, 107.9667°W)
Time: 12:39:21
(UTC+00:00)
Language:

METEOR 2-5 DEB - Orbit

View from above orbital plane
View from above orbital plane
View from above satellite
View from above satellite

Ground track
Ground track

The orbit data is extracted from the following two-line orbital elements,

1 36913U 79095BE  22337.72466774  .00015089  00000-0  25181-2 0  9994
2 36913  81.1912 338.7522 0016169  50.9708 309.2932 14.69781075500751
Epoch (UTC): 03 December 2022 17:23:31
Eccentricity: 0.0016169
inclination: 81.1912°
perigee height: 650 km
apogee height: 673 km
right ascension of ascending node: 338.7522°
argument of perigee: 50.9708°
revolutions per day: 14.69781075
mean anomaly at epoch: 309.2932°
orbit number at epoch: 50075

The dashed part of the orbit path shows where the satellite is in the earth's shadow,  

DLR